Theta_e
308 308 308 310 313 314 314 315 314 315 314 317 318 318 316 314 312 307 299 303 304 299 301 301 302 302 302 300 294 296 296 295 293 292 292 292 290 292 290 290 288 288 285 282 283 282 285 299 294 294 297 298 299 297
308 308 307 311 313 313 314 314 314 315 314 313 316 315 316 315 313 309 298 301 305 298 299 303 303 303 304 304 301 297 297 295 296 294 294 294 292 292 291 287 291 289 292 288 290 290 297 297 299 300 301 300 299 299
307 307 308 312 313 313 313 314 314 314 313 313 312 313 316 315 313 310 302 299 297 292 293 297 299 301 305 305 305 298 298 301 299 303 297 296 292 293 289 290 291 293 297 294 293 296 297 300 300 300 300 299 299 300
307 307 308 311 312 312 313 313 313 314 314 313 312 314 315 314 313 311 304 299 298 292 287 290 300 299 304 305 305 303 301 304 304 303 297 296 293 297 292 295 296 295 296 294 293 297 298 301 301 303 302 302 301 300
306 306 307 311 311 311 312 312 312 313 313 313 313 314 314 314 312 310 308 303 301 293 286 288 296 299 300 303 304 303 301 300 299 298 297 296 300 297 295 295 292 297 295 294 293 298 300 301 303 304 302 301 302 301
305 306 308 310 311 311 311 311 311 311 312 311 313 314 314 313 312 308 298 305 303 302 293 285 294 295 296 298 301 301 300 300 299 296 295 298 298 297 291 290 298 301 302 302 301 301 301 302 304 304 302 303 304 303
306 307 308 309 310 310 310 311 311 311 310 310 310 313 313 312 310 303 296 301 306 304 293 286 285 292 293 295 296 298 299 297 297 295 294 294 294 296 288 290 296 301 303 301 302 301 299 302 302 301 302 304 305 305
305 308 309 309 309 309 310 310 310 310 310 310 309 311 312 310 307 302 304 306 306 299 296 287 286 291 294 289 288 295 292 294 294 294 294 294 295 294 288 296 298 301 301 302 301 302 302 301 302 302 303 303 302 302
305 306 307 309 309 309 309 309 310 310 310 310 309 310 306 301 297 299 305 306 301 294 285 285 286 286 295 293 293 293 294 287 293 289 290 294 291 288 292 294 296 298 298 299 302 303 300 300 300 301 301 301 300 300
304 306 307 308 309 309 309 309 309 309 309 305 299 292 290 292 305 304 296 289 288 286 285 285 293 288 294 291 289 289 290 287 283 287 293 289 291 296 298 296 297 298 300 301 298 298 299 299 300 299 299 301 300 300
304 306 307 308 308 308 309 309 308 307 302 294 286 285 289 298 294 289 287 285 284 283 284 289 293 290 295 289 287 290 285 285 282 286 286 284 285 293 298 299 300 301 302 301 301 302 301 300 299 299 299 299 299 297
305 306 307 308 308 308 307 307 305 299 296 293 292 294 292 286 284 283 283 283 284 283 286 290 291 292 293 295 288 287 285 284 283 289 285 284 288 293 295 297 299 300 300 299 300 300 300 299 298 297 296 295 294 293
305 306 307 307 307 308 307 305 302 300 299 294 287 285 285 283 281 280 277 280 282 286 287 289 287 289 290 291 287 286 284 283 289 284 284 285 290 292 294 297 298 299 299 298 295 295 295 293 293 292 291 291 291 291
305 306 306 306 307 306 304 303 302 299 292 285 284 280 282 279 281 283 282 283 286 288 289 291 286 287 288 287 285 283 284 286 282 281 281 284 290 293 294 294 294 292 292 291 291 291 291 291 291 291 291 291 291 291
305 305 305 305 305 304 303 304 302 298 289 285 284 280 282 285 285 286 287 287 288 292 291 288 287 287 285 284 285 283 281 280 282 280 282 288 290 291 291 290 289 289 289 290 291 291 291 290 290 291 291 291 291 291
305 303 301 305 304 303 303 299 295 290 286 285 285 284 284 283 283 285 285 285 292 292 292 289 284 284 283 284 282 281 280 279 281 284 289 288 288 287 287 288 288 289 289 290 290 290 291 290 290 290 291 290 291 291
302 296 304 304 304 301 299 292 288 286 285 284 283 286 286 284 283 284 287 288 294 290 285 285 283 283 284 282 282 284 282 285 289 289 290 288 287 287 287 288 289 290 289 289 289 290 290 290 290 289 288 289 290 291
297 302 303 302 299 294 287 287 286 286 283 285 282 282 283 286 286 286 287 290 291 286 285 284 286 282 281 280 281 284 288 289 289 289 289 290 289 288 289 288 289 289 288 288 289 289 290 289 289 287 288 289 289 290
300 301 302 301 297 289 286 285 285 279 282 284 283 280 279 281 284 288 289 290 290 289 286 285 280 278 282 284 286 287 288 289 288 288 289 289 289 289 289 289 288 288 288 288 288 288 289 289 288 288 288 288 288 289
303 302 301 298 294 284 281 282 285 281 281 283 284 283 281 278 280 285 286 286 287 285 282 282 280 284 286 288 289 289 290 290 288 286 286 288 287 288 288 288 288 288 287 288 288 292 288 288 288 288 288 288 287 288
298 295 293 287 285 283 284 283 283 283 282 280 284 284 283 281 280 280 286 287 285 284 281 282 282 287 289 289 291 290 288 288 287 287 287 286 287 287 287 287 287 287 286 286 286 287 289 286 287 287 287 287 287 287
288 294 286 287 283 273 276 280 282 283 283 283 284 284 282 281 282 284 285 284 284 284 282 284 288 289 289 289 289 288 289 288 288 289 291 290 286 286 286 287 286 286 286 286 286 286 286 286 287 287 286 287 289 288
292 289 285 284 275 271 274 275 274 281 279 281 284 281 281 282 283 286 283 284 285 284 286 286 287 288 288 288 288 288 288 287 285 285 286 285 286 285 285 285 286 285 285 285 286 286 286 289 288 288 288 288 287 287
290 283 281 274 275 274 273 272 276 279 280 276 276 276 279 281 284 280 276 281 283 283 283 285 285 285 284 284 284 283 284 285 284 284 284 284 283 284 285 285 285 285 285 285 285 285 285 286 288 286 287 286 287 286
282 277 277 273 270 269 270 268 275 277 277 277 275 276 277 281 278 278 278 279 280 280 280 281 282 282 282 281 282 282 283 283 282 281 282 283 282 282 282 282 283 284 285 283 282 283 283 283 283 283 283 284 283 284
271 273 270 266 268 269 269 267 266 272 275 275 276 276 275 278 277 275 277 277 277 278 279 279 279 279 279 281 280 280 281 282 282 281 281 282 281 280 280 280 280 281 283 282 281 281 281 281 282 282 282 283 285 284
266 269 268 267 270 272 272 275 277 273 269 270 273 276 276 273 272 274 277 278 279 281 282 280 280 279 278 279 280 280 281 281 281 281 282 282 282 282 281 279 278 280 282 282 282 283 282 282 282 283 283 284 284 284
266 268 269 269 272 275 271 271 270 270 272 274 277 273 274 273 272 277 279 280 278 279 280 280 280 279 279 279 279 279 280 280 280 280 280 280 280 280 280 280 281 284 282 282 282 283 283 283 283 283 284 284 284 286
272 274 275 271 274 274 273 274 274 276 276 276 274 274 273 276 278 279 279 277 278 278 277 277 277 278 278 279 279 279 280 278 276 275 275 275 275 276 278 279 279 279 279 280 282 282 282 282 283 283 283 283 285 286
271 275 272 271 271 273 274 277 277 277 278 277 276 276 276 277 278 278 274 276 275 273 275 276 277 277 276 276 276 277 278 279 276 274 273 274 274 277 277 277 278 278 279 278 278 278 282 280 280 280 280 280 281 281
276 275 274 275 273 276 277 279 278 277 278 278 276 274 275 275 276 275 275 275 276 276 276 275 276 277 276 275 275 275 275 276 275 275 276 276 276 276 277 278 278 278 278 278 277 277 277 277 277 277 277 277 278 279
271 271 271 270 270 276 278 278 278 277 278 277 276 276 276 276 273 273 275 275 274 273 276 275 274 275 276 276 274 273 280 274 274 274 275 275 276 277 278 278 278 278 278 277 277 276 276 276 276 276 276 276 276 276
270 273 273 271 268 268 272 271 268 268 273 274 273 275 276 275 271 274 276 276 274 272 272 274 275 275 275 276 276 276 277 273 275 280 280 280 281 281 280 280 280 279 276 275 276 276 275 275 275 275 275 275 275 275
Wind_Speed
27 27 22 25 25 24 22 20 19 13 4 17 22 36 38 38 37 22 10 7 5 2 6 2 1 4 5 8 8 5 6 2 4 4 5 6 5 8 5 8 9 13 10 6 3 3 12 10 5 11 9 4 1 3
26 25 23 27 25 24 22 20 19 18 15 7 11 16 31 39 37 30 8 8 4 2 4 3 4 1 2 3 8 6 6 7 7 5 3 4 4 4 7 6 3 6 12 11 14 13 7 11 9 11 5 5 4 4
23 25 26 25 25 24 23 21 19 20 20 18 11 15 30 37 37 30 10 9 4 3 5 3 5 2 3 2 1 7 1 6 4 5 6 5 6 6 6 7 6 5 7 5 4 9 12 11 10 4 8 8 5 5
21 22 24 23 23 23 22 21 20 19 22 20 17 11 15 31 35 30 11 8 10 4 4 7 3 4 3 5 3 2 3 4 5 4 3 4 4 4 6 5 10 8 12 8 6 6 1 6 10 11 8 7 3 3
18 19 23 21 20 21 21 19 19 18 15 18 18 14 12 28 31 20 9 10 12 10 7 3 2 3 5 3 6 5 3 3 3 3 3 5 3 2 2 1 6 7 10 9 8 8 7 5 8 7 8 5 6 6
18 23 23 20 19 20 20 19 16 13 18 9 21 16 13 16 31 9 4 5 12 10 5 2 3 4 5 3 7 4 4 3 2 5 3 3 2 3 5 6 5 6 5 7 5 2 1 2 3 4 6 7 9 7
17 21 20 19 18 19 19 15 15 15 9 13 4 12 15 17 9 5 6 5 17 7 5 0 2 1 1 4 3 3 4 2 2 3 3 2 2 4 2 10 4 9 7 2 4 4 3 5 5 2 1 5 5 6
13 20 18 17 17 18 17 16 18 18 16 13 6 9 18 16 15 3 1 20 20 8 4 4 3 3 2 2 3 1 3 2 3 2 2 2 1 2 6 18 8 11 8 12 6 6 7 4 6 7 6 5 8 8
16 14 16 16 17 17 18 17 15 14 14 12 3 9 6 0 4 3 14 17 6 5 7 5 8 6 5 3 3 3 2 2 2 2 3 4 4 9 9 9 8 7 7 6 10 12 3 7 8 7 7 7 9 7
16 16 20 18 17 17 16 14 13 13 12 19 7 3 4 2 33 18 4 3 4 2 1 3 1 5 6 4 3 5 3 4 4 5 2 4 10 20 14 5 6 9 15 10 9 11 9 12 11 10 10 8 8 7
19 22 20 19 18 18 17 15 14 16 9 4 3 1 2 5 3 4 5 4 3 4 4 4 3 8 2 5 5 3 5 5 6 5 7 4 7 18 21 26 27 21 17 16 15 14 9 7 7 7 7 7 5 3
22 22 19 19 18 18 18 18 17 6 2 6 9 4 1 3 3 6 5 3 4 8 5 8 6 5 3 3 4 3 4 3 4 7 4 4 9 10 6 17 16 17 16 15 14 12 9 8 6 5 4 3 2 1
20 19 19 18 18 18 21 20 21 26 10 4 5 3 1 2 2 6 8 4 5 8 8 7 7 5 3 3 4 4 5 4 8 3 5 8 3 3 7 9 7 6 7 6 4 5 7 6 6 4 4 3 3 3
20 19 19 18 18 20 26 28 24 12 6 3 3 3 3 3 3 2 2 3 3 5 9 10 5 4 3 3 4 5 3 5 5 5 10 4 7 8 6 4 6 7 8 8 8 6 6 6 5 5 4 2 2 2
20 19 19 18 21 28 28 21 12 4 3 3 1 3 3 2 1 2 2 3 3 7 9 7 4 3 2 4 2 5 4 5 9 8 4 4 3 5 5 3 6 6 6 7 6 6 6 5 3 1 1 1 3 4
22 19 5 21 26 28 21 11 4 3 3 2 2 2 2 4 2 2 2 3 1 5 5 5 4 3 2 4 4 5 7 8 5 4 3 3 4 5 6 5 5 5 6 6 5 4 4 3 1 2 3 3 4 4
12 3 21 27 27 20 13 5 3 4 3 2 1 1 1 3 2 2 2 2 3 3 3 3 4 2 3 3 4 4 5 3 2 1 2 4 5 6 6 6 6 6 5 5 4 4 3 2 1 1 5 5 5 5
5 17 30 28 15 8 4 4 4 3 3 1 2 2 1 2 4 2 3 2 3 3 1 4 5 3 3 4 3 3 2 1 3 2 3 5 5 5 5 5 5 5 4 4 3 1 3 5 5 5 6 6 6 7
15 19 27 19 8 6 4 3 3 3 2 0 2 2 2 2 3 3 2 4 3 3 3 2 4 3 2 2 2 2 1 2 3 2 2 4 5 5 4 4 4 3 3 2 1 2 2 4 4 4 4 4 4 5
30 27 20 12 8 4 5 2 1 3 1 1 2 3 2 1 1 3 4 3 3 2 3 1 2 2 3 2 2 2 2 3 4 3 2 2 2 5 4 3 2 2 2 2 2 3 3 3 4 4 4 4 4 5
18 9 13 7 5 6 4 2 2 2 2 2 1 2 2 3 3 2 2 2 4 0 1 3 3 2 2 3 3 3 3 3 3 4 4 3 2 4 2 0 0 1 2 2 2 3 3 4 4 4 3 4 5 5
4 10 4 5 5 5 5 3 2 2 2 2 2 2 2 2 1 1 2 2 2 3 4 3 3 3 3 2 2 3 4 4 3 3 4 4 2 1 0 1 1 1 1 2 2 3 4 4 4 4 4 5 6 5
10 6 5 4 6 6 1 2 4 1 4 3 2 3 2 2 2 2 2 2 2 4 3 3 2 2 3 2 3 3 3 5 3 2 2 2 1 1 1 1 1 2 3 4 2 3 4 5 6 6 5 6 6 7
7 6 4 3 4 2 2 3 1 2 2 1 2 3 2 2 1 1 2 3 3 1 2 1 2 3 3 4 3 3 2 3 4 3 3 3 2 2 3 3 3 3 2 3 4 4 4 5 10 7 8 9 9 9
6 3 4 3 2 5 3 2 1 2 3 3 4 2 1 1 2 3 3 1 1 2 2 3 4 3 3 3 4 4 5 4 4 3 3 3 2 2 3 3 4 4 5 5 5 6 6 7 8 9 10 11 13 15
6 3 3 3 1 5 4 4 5 5 4 3 2 2 1 2 2 4 0 3 2 3 3 3 2 3 4 3 4 3 3 4 4 3 2 4 3 2 2 2 2 3 4 3 3 6 7 7 10 15 13 16 21 19
4 1 3 1 3 2 3 2 2 3 3 5 5 5 3 4 4 1 1 3 2 2 2 3 4 4 3 3 3 3 3 4 3 1 2 2 2 2 3 3 3 3 4 5 5 7 9 11 12 13 13 13 13 14
3 3 5 3 2 1 3 2 3 3 3 2 5 4 6 4 2 2 2 2 1 1 3 3 4 3 3 3 2 3 4 4 4 4 3 4 5 4 4 2 1 11 6 5 7 8 8 9 11 13 14 14 13 12
3 2 4 4 3 3 2 2 1 1 1 2 3 3 3 2 3 2 2 1 2 3 4 3 3 3 3 4 4 3 4 4 4 5 4 2 3 3 4 4 4 4 4 4 13 13 13 12 13 12 14 12 12 12
0 0 4 2 2 3 2 2 1 1 2 2 4 3 3 3 2 2 3 3 3 2 1 3 3 4 3 3 3 4 3 4 4 3 1 3 3 4 4 4 5 5 4 5 7 9 15 11 12 10 10 10 10 11
1 1 3 3 3 2 2 3 2 3 3 4 4 4 5 3 1 3 3 2 3 3 4 3 3 3 4 3 2 1 0 1 3 2 2 3 4 4 5 5 5 5 4 6 7 8 9 10 9 11 12 13 15 15
3 2 4 4 1 1 2 2 2 2 2 2 2 2 2 2 3 2 4 3 4 4 5 4 3 3 2 2 1 2 2 0 2 2 5 4 5 6 7 5 5 4 5 7 7 8 10 11 10 11 12 14 15 15
3 3 3 3 3 2 2 3 3 2 4 3 3 3 3 3 3 1 1 3 3 1 1 1 1 2 1 2 3 2 4 2 7 14 15 14 15 13 7 5 7 6 5 5 7 9 11 12 11 12 14 14 14 15
Wind_Direction
249 247 258 249 234 224 222 220 224 216 248 235 208 203 189 186 184 184 200 165 159 192 281 359 296 153 145 175 166 192 85 329 68 159 153 196 183 208 143 166 179 165 154 178 134 192 269 189 77 179 205 218 159 154
248 245 257 238 225 218 219 216 216 206 183 216 215 198 213 184 186 181 200 186 119 142 267 320 281 283 1 140 147 197 164 160 166 141 200 172 200 180 155 203 163 182 189 178 181 204 221 193 203 209 151 151 158 118
244 242 247 234 219 212 214 212 211 212 182 182 193 262 197 190 181 181 182 154 107 114 323 290 249 193 112 209 122 131 219 166 181 179 161 201 212 133 172 217 137 237 172 212 116 222 229 214 242 250 203 225 200 194
249 239 245 229 212 206 205 209 213 213 197 174 194 205 194 186 180 179 179 154 173 125 182 267 309 188 136 159 121 87 119 75 111 112 141 170 185 181 201 180 194 183 149 177 260 290 24 222 220 223 225 245 251 268
237 247 249 221 208 204 201 203 207 214 196 195 197 191 189 180 181 180 186 176 173 166 174 220 359 16 6 161 150 127 103 109 125 125 159 209 210 133 288 92 223 174 176 183 221 210 207 199 201 209 221 240 252 234
233 243 237 217 209 204 195 199 203 223 206 178 199 178 192 168 170 169 161 199 187 176 92 137 332 23 1 61 134 148 136 96 120 145 196 238 280 148 175 235 205 188 185 171 208 153 128 41 238 177 187 219 239 242
260 239 218 209 204 199 193 191 191 193 201 174 168 178 177 147 142 178 177 174 173 153 107 230 264 267 341 80 51 75 34 94 139 146 190 178 258 114 146 239 169 207 216 140 135 102 163 192 221 23 292 259 230 221
258 216 200 196 195 191 179 190 199 192 187 173 190 215 182 136 109 120 130 162 151 142 97 178 163 141 199 116 95 18 84 33 8 108 53 190 47 51 256 241 219 242 269 268 273 196 218 241 277 263 255 269 276 277
236 210 201 188 184 176 172 178 175 172 169 152 181 197 130 82 108 144 130 126 57 93 155 171 160 162 159 116 109 70 86 93 3 217 211 159 162 217 238 236 203 181 195 213 244 264 254 234 244 256 261 263 256 258
234 220 197 180 172 163 157 158 157 150 151 98 53 30 97 265 119 112 35 78 56 46 67 174 138 149 141 135 127 119 127 171 183 222 156 210 244 248 243 235 226 237 234 241 255 256 255 258 253 250 240 248 248 247
237 205 180 169 163 153 143 143 133 119 77 61 74 128 258 315 77 58 128 140 135 166 176 192 160 136 214 137 139 167 156 159 189 193 179 194 246 244 235 238 240 243 250 248 239 245 234 220 211 224 235 234 241 236
202 181 163 158 157 152 142 135 114 76 73 132 120 115 43 54 73 127 145 131 181 189 177 170 143 124 149 125 108 157 144 158 186 139 172 232 245 235 213 223 238 234 236 240 239 238 234 235 221 200 178 163 142 310
183 162 154 146 145 149 138 118 113 119 104 56 55 105 143 77 191 156 163 191 185 164 177 165 128 125 112 102 109 158 153 170 125 159 220 233 248 319 211 220 225 207 210 197 143 129 129 127 122 133 131 90 49 7
164 152 144 140 140 130 125 127 123 98 70 67 106 121 210 149 228 197 210 166 148 137 136 134 97 117 141 117 129 138 128 137 164 180 231 242 213 220 221 142 118 110 110 117 114 108 102 97 81 58 61 73 76 301
147 140 136 139 131 132 132 128 103 72 93 92 177 160 185 147 121 97 12 50 35 151 125 108 77 97 123 116 162 111 138 173 203 222 223 234 188 152 145 86 114 123 119 117 119 119 121 117 115 93 5 324 285 282
135 117 108 135 132 134 124 96 55 81 67 75 21 83 55 69 79 102 79 105 64 118 90 72 112 139 132 124 132 165 163 210 233 209 226 144 107 104 109 106 112 112 108 109 111 119 118 122 138 263 295 296 287 265
109 85 141 130 130 116 77 75 59 53 115 90 92 310 289 82 93 138 112 104 131 94 88 118 105 93 113 113 150 178 203 222 184 74 168 111 124 127 121 118 122 120 120 123 120 121 142 172 213 331 328 314 321 311
94 132 126 123 114 78 43 38 81 73 69 357 107 235 260 120 114 49 99 109 90 58 109 147 133 129 144 161 204 215 185 130 86 117 99 101 114 119 122 131 142 139 137 134 117 58 19 2 342 315 311 305 313 308
132 130 130 128 96 96 85 27 26 97 81 329 314 324 55 50 17 117 132 83 71 86 92 9 102 143 204 203 153 179 163 148 148 127 86 97 113 122 113 99 124 142 160 155 151 233 251 253 254 273 280 291 277 279
129 129 113 79 54 88 87 48 346 96 79 159 8 30 59 114 184 73 72 67 74 61 51 68 187 196 169 196 164 152 151 131 110 86 73 58 97 108 115 130 174 204 214 227 229 236 265 284 274 266 266 262 273 274
101 93 56 63 54 55 84 113 72 75 128 67 81 60 55 13 41 62 65 53 52 27 273 226 220 252 82 77 95 105 103 117 133 142 164 153 180 128 125 135 318 263 223 242 253 276 276 243 255 274 285 281 271 267
78 80 77 34 73 40 67 351 82 140 96 117 91 80 82 82 89 115 107 87 188 217 209 203 207 173 118 126 112 136 138 87 80 85 79 105 107 92 234 220 128 276 294 274 270 283 284 286 296 287 280 278 278 270
89 61 54 61 68 49 317 22 77 26 114 148 131 117 142 145 172 99 171 215 226 207 213 204 204 159 148 112 89 79 111 123 130 152 135 127 106 67 79 9 31 352 331 313 309 301 292 302 304 301 296 298 293 295
43 57 68 79 77 103 41 25 357 85 92 136 108 86 95 105 99 107 224 205 220 154 130 161 114 99 58 77 86 88 82 116 119 83 41 87 77 24 41 26 18 16 6 333 353 356 348 342 338 330 327 315 306 296
75 25 96 78 37 88 100 66 92 119 136 176 94 111 131 99 166 198 229 242 60 61 67 59 64 69 135 108 109 85 39 83 92 95 27 56 70 43 32 28 21 8 23 30 10 352 339 332 330 324 317 309 303 301
83 339 102 165 141 119 169 127 177 160 127 116 114 132 118 171 181 231 96 21 48 33 32 50 90 92 60 72 104 66 33 30 55 57 48 36 43 59 8 351 357 356 22 12 344 329 322 318 313 312 307 306 304 302
97 62 343 203 134 106 56 65 82 110 138 152 165 161 158 182 219 140 94 5 90 59 30 41 57 70 88 73 65 58 50 52 74 113 304 317 350 43 78 80 35 324 330 333 323 322 321 311 304 300 294 290 289 287
154 129 138 241 70 86 129 111 133 173 184 183 124 169 162 175 162 64 66 47 42 40 70 59 57 65 75 69 65 62 52 32 12 4 48 66 82 73 56 34 15 357 345 326 326 316 303 303 304 299 299 297 297 292
59 355 83 42 56 58 60 60 77 43 287 132 114 111 104 60 31 52 37 312 351 63 78 83 23 41 57 56 56 72 77 56 56 64 52 9 357 339 358 337 331 317 302 303 311 315 314 313 311 316 314 313 311 307
65 358 91 56 56 69 44 351 53 329 12 91 101 98 88 70 20 357 30 27 53 71 102 101 78 82 80 82 59 53 62 92 80 84 15 325 309 306 311 310 310 304 292 304 309 308 313 316 313 314 321 321 322 327
106 95 76 62 68 42 27 341 43 43 39 55 41 73 99 117 68 5 34 10 53 62 75 68 80 76 87 69 59 42 90 42 69 35 341 299 291 288 284 279 284 284 286 301 305 307 311 315 318 317 317 318 320 330
30 63 118 109 113 329 337 17 39 52 40 61 82 89 147 131 91 19 351 38 60 52 52 57 59 41 35 47 353 285 323 90 358 320 298 283 277 270 276 272 277 278 289 298 305 308 308 310 310 312 313 315 318 320
36 39 57 91 62 29 343 76 38 57 27 50 27 9 45 70 92 115 358 48 77 120 108 35 353 322 294 56 11 359 35 357 325 328 320 316 313 309 310 302 288 294 277 288 301 302 304 302 302 307 311 310 312 316